Location: Chiroubles
(46.1812°N, 4.6660°E)
Time: 03:39:35
(UTC+00:00)

Cosmos 1184 Rocket - Pass Details

Date: 15 August 2020
Orbit: 406 x 422 km, 81.2° (Epoch: 27 September)

Event Time Altitude Azimuth Distance (km) Brightness Sun altitude
Rises 19:29:02 0° 170° (S) 2,373 6.2 -7.0°
Reaches altitude 10° 19:31:10 10° 161° (SSE) 1,513 5.1 -7.3°
Maximum altitude 19:34:11 34° 95° (E) 726 3.5 -7.8°
Drops below altitude 10° 19:37:13 10° 28° (NNE) 1,526 5.6 -8.3°
Sets 19:39:22 0° 19° (NNE) 2,395 6.7 -8.6°
